Location: Krakow
(50.0830°N, 19.9170°E)
Time: 13:44:44
(UTC+01:00)

Vanguard 2 - Pass Details

Date: 13 December 2023
Orbit: 553 x 2919 km, 32.9° (Epoch: 24 February)

Event Time Altitude Azimuth Distance (km) Brightness Sun altitude
Rises 16:19:54 0° 197° (SSW) 5,850 12.8 -6.5°
Reaches altitude 10° 16:24:54 10° 183° (S) 5,179 12.2 -7.2°
Maximum altitude 16:35:21 21° 141° (SE) 4,720 11.4 -8.7°
Drops below altitude 10° 16:46:44 10° 101° (E) 5,733 11.5 -10.3°
Enters shadow 16:49:56 - 94° (E) 6,203 11.6 -10.8°
